Regional Weather Roundup
Issued by NWS

Home | Current Version | Previous Version | Text Only | Print | Product List | Glossary Off
Versions: 1 2 3 4 5 6 7 8 9 10 11 12 13 14 15 16 17 18 19 20 21 22 23 24 25 26 27 28 29 30 31 32 33 34 35 36 37 38 39 40 41 42 43 44 45 46 47 48 49 50

000
ASUS43 KMPX 221310
RWRMN
WEATHER ROUNDUP FOR MINNESOTA
NATIONAL WEATHER SERVICE TWIN CITIES/CHANHASSEN MN
800 AM CDT THU JUN 22 2017


NOTE: "FAIR" INDICATES FEW OR NO CLOUDS BELOW 12,000 FEET WITH NO
SIGNIFICANT WEATHER AND/OR OBSTRUCTIONS TO VISIBILITY. N/A MEANS
CURRENT SKY AND/OR WEATHER CONDITIONS ARE NOT AVAILABLE.

MNZ060>063-068>070-221400-
   Twin Cities Metro

CITY           SKY/WX    TMP DP  RH WIND       PRES   REMARKS
TWIN CITIES    CLOUDY    70  64  81 E6        29.72R
ST PAUL        LGT RAIN  68  66  93 CALM      29.72R
CRYSTAL        CLOUDY    68  63  84 VRB6      29.70R
BLAINE         CLOUDY    70  68  94 NE7       29.67F
LAKEVILLE      CLOUDY    66  66 100 N6        29.71F
EDEN PRAIRIE   CLOUDY    71  66  84 CALM      29.72R
SOUTH ST PAUL  LGT RAIN  69  66  90 CALM      29.72F
LAKE ELMO      LGT RAIN  66  64  94 E6        29.72F
$$
MNZ001>005-007-008-013>017-022>024-027-028-221400-
   Northwest Minnesota

CITY           SKY/WX    TMP DP  RH WIND       PRES   REMARKS
BEMIDJI        CLOUDY    60  51  73 W3        29.73R
HALLOCK        CLOUDY    55  48  76 CALM      29.68S
ROSEAU         PTSUNNY   55  50  82 SW6       29.68R
WARROAD        CLOUDY    55  50  82 SW7       29.67S
THIEF RVR FALL CLOUDY    57  50  77 SW6       29.72R
CROOKSTON      CLOUDY    57  50  77 S3        29.73R
FOSSTON        CLOUDY    57  54  88 SW3       29.74S
DETROIT LAKES  CLOUDY    61  54  77 CALM      29.75S
MOORHEAD       CLOUDY    59  54  82 CALM      29.74F
PARK RAPIDS    CLOUDY    61  53  75 N5        29.72F
MAHNOMEN       FAIR      60  56  85 CALM      29.74S
$$
MNZ006-009>011-018-025>026-221400-
   North Central Minnesota

CITY           SKY/WX    TMP DP  RH WIND       PRES   REMARKS
BAUDETTE       MOSUNNY   59  49  69 SW6       29.66R
FLAG ISLAND    MOSUNNY   57  48  72 CALM      29.62S
INTL FALLS     SUNNY     61  53  75 W7        29.67R
WASKISH        SUNNY     64  50  59 W9        29.70R
BIG FORK       SUNNY     61  55  82 NW3       29.70R
LONGVILLE      CLOUDY    63  55  77 CALM      29.70F
GRAND RAPIDS   MOSUNNY   62  56  80 NW5       29.72S
CRANE LAKE     SUNNY     61  55  82 CALM      29.68R
ORR            SUNNY     61  54  77 NW5       29.66S
COOK           SUNNY    N/A N/A N/A SW5       29.70R
WALKER         FAIR      60  55  83 NW3       29.72F
$$
MNZ012-019>021-037-221400-
   Northeast Minnesota

CITY           SKY/WX    TMP DP  RH WIND       PRES   REMARKS
DULUTH         CLOUDY    61  54  77 NW6       29.70S
ELY            SUNNY     61  55  82 W6        29.68R
HIBBING        CLOUDY    60  57  89 W3        29.70R
EVELETH        CLOUDY    60  53  78 W5        29.71R
DULUTH HARBOR  CLOUDY    57  54  88 S8        29.70S
TWO HARBORS    CLOUDY    63  57  82 SW3       29.67S
SILVER BAY     MOSUNNY   63  59  88 CALM      29.65F
GRAND MARAIS     N/A     46  46 100 SW5       29.65R
G MARAIS ARPRT CLOUDY    59  54  82 W8        29.66R
$$
MNZ029>031-032-039>041-046>048-054>057-064-221400-
   West Central Minnesota

CITY           SKY/WX    TMP DP  RH WIND       PRES   REMARKS
FERGUS FALLS   CLOUDY    63  59  88 CALM      29.72R
WHEATON        CLOUDY    61  57  88 N3        29.74S
MORRIS         CLOUDY    63  57  82 NE5       29.69F
ALEXANDRIA     CLOUDY    63  57  81 CALM      29.74F
ELBOW LAKE     FAIR      64  56  75 CALM      29.73S
WADENA         CLOUDY    59  57  94 NW5       29.72F
GLENWOOD       CLOUDY    63  59  88 NE5       29.72S
APPLETON       RAIN      61  55  82 SE7       29.71S
BENSON         RAIN      61  54  77 E6        29.71F
ORTONVILLE     LGT RAIN  61  55  82 CALM      29.71R
MADISON        RAIN      64  63  94 E12       29.67F
$$
MNZ033>034-036-042>043-049>051-058-059-221400-
   Central Minnesota

CITY           SKY/WX    TMP DP  RH WIND       PRES   REMARKS
ST CLOUD       LGT RAIN  63  59  87 E5        29.70S
SAUK CENTRE    FAIR      62  59  91 CALM      29.71F
PAYNESVILLE    LGT RAIN  62  62 100 NE7       29.70F
AITKIN         CLOUDY    61  57  88 CALM      29.69F
PINE RIVER     CLOUDY    61  55  82 CALM      29.74F
BRAINERD       CLOUDY    63  55  75 CALM      29.71F
STAPLES        CLOUDY    61  54  77 CALM      29.70F
LONG PRAIRIE   FAIR      61  57  88 CALM      29.73F
LITTLE FALLS   CLOUDY    61  55  82 CALM      29.72F
LITCHFIELD     LGT RAIN  68  61  77 NE12      29.71R
BUFFALO        CLOUDY    68  61  76 N7G18     29.75R
MAPLE LAKE     CLOUDY    67  62  83 N8        29.74R
HUTCHINSON     CLOUDY    69  66  88 NE9       29.72R
$$
MNZ037-044-045-052-053-221400-
   East Central Minnesota

CITY           SKY/WX    TMP DP  RH WIND       PRES   REMARKS
PRINCETON      LGT RAIN  66  61  82 VRB5      29.72F
MORA           RAIN      64  59  82 SE5       29.74F
CAMBRIDGE      LGT RAIN  68  59  73 N5        29.72R
RUSH CITY      LGT RAIN  66  61  82 NW3       29.76R
MOOSE LAKE     CLOUDY    61  57  88 CALM      29.70R
HINCKLEY       PTSUNNY   64  61  88 CALM      29.74R
CLOQUET        CLOUDY    61  54  77 CALM      29.71R
MCGREGOR       CLOUDY    61  55  82 CALM      29.72S
$$
MNZ071>073-080-081-089-090-097-098-221400-
   Southwest Minnesota

CITY           SKY/WX    TMP DP  RH WIND       PRES   REMARKS
MONTEVIDEO     RAIN      63  57  82 E6        29.74R
GRANITE FALLS  LGT RAIN  68  63  82 N9        29.73R
CANBY          LGT RAIN  61  59  93 CALM      29.67F
MARSHALL       LGT RAIN  64  62  93 N10       29.68F
REDWOOD FALLS  LGT RAIN  69  66  90 N7        29.69R
OLIVIA         CLOUDY    70  63  78 NE7       29.71S
PIPESTONE      CLOUDY    64  61  88 E5        29.70F
WINDOM         CLOUDY    70  64  83 E14       29.63F
WORTHINGTON    CLOUDY    70  66  88 NW12      29.75R THUNDER
JACKSON        CLOUDY    68  66  94 CALM      29.65F FOG
TRACY          RAIN      66  65  99 N7        29.73R
SLAYTON        TSTM      63  58  86 SE8G33    29.74R
$$
MNZ065>067-074>077-082>085-091>093-221400-
   South Central Minnesota

CITY           SKY/WX    TMP DP  RH WIND       PRES   REMARKS
MANKATO        CLOUDY    71  69  93 N7        29.68F
NEW ULM        CLOUDY    68  64  88 NE7       29.67F
ST JAMES       CLOUDY    70  66  88 N10       29.66F
FAIRMONT       CLOUDY    72  66  81 E5        29.66F
GLENCOE        CLOUDY    69  68  98 CALM      29.71F
FARIBAULT      CLOUDY    70  68  94 E6        29.69
OWATONNA       CLOUDY    70  66  88 CALM      29.70F
WASECA         CLOUDY    72  64  78 E6        29.69F
ALBERT LEA     CLOUDY    72  64  78 S12       29.69F
$$
MNZ078>079-086>088-094>096-221400-
   Southeast Minnesota

CITY           SKY/WX    TMP DP  RH WIND       PRES   REMARKS
ROCHESTER      CLOUDY    73  65  75 S10       29.70F
RED WING       CLOUDY    70  66  88 CALM      29.72R
STANTON        LGT RAIN  69  66  90 CALM      29.69F
DODGE CENTER   CLOUDY    72  64  78 NW7       29.71F
WINONA         PTSUNNY   73  63  68 SW6       29.68F
AUSTIN         CLOUDY    72  64  78 S13       29.71F
PRESTON        MOSUNNY   72  64  75 S10       29.72F
$$
ABBREVIATIONS USED IN REMARKS
   TC - TEMPERATURES IN CELSIUS
  WCI - WIND CHILL INDEX
   HX - HEAT INDEX
  VSB - VISIBILITY
$$



USA.gov is the U.S. government's official web portal to all federal, state and local government web resources and services.